[Date Prev][Date Next][Thread Prev][Thread Next] - [Date Index][Thread Index][Author Index]

2 Line ISS Keps 6-4



ISS
1 25544U 98067A   01155.25927083  .00031000  00000-0  36243-3 0   398
2 25544  51.5688 153.9474 0017333 119.5970  55.1960 15.61124008145056

----
Via the sarex mailing list at AMSAT.ORG courtesy of AMSAT-NA.
To unsubscribe, send "unsubscribe sarex" to Majordomo@amsat.org



AMSAT Top AMSAT Home